Location: Lafig�re
(44.4503°N, 4.0357°E)
Time: 01:56:32
(UTC+00:00)

Transit 4A - Pass Details

Date: 27 January 2021
Orbit: 866 x 979 km, 66.8° (Epoch: 24 February)

Event Time Altitude Azimuth Distance (km) Brightness Sun altitude
Rises 02:57:59 0° 327° (NNW) 3,625 - -44.2°
Reaches altitude 10° 03:00:34 10° 327° (NNW) 2,661 - -43.8°
Maximum altitude 03:06:46 87° 240° (WSW) 925 - -42.7°
Drops below altitude 10° 03:12:44 10° 152° (SSE) 2,565 - -41.7°
Sets 03:15:11 0° 152° (SSE) 3,487 - -41.3°
